AirNav   Air Wisconsin Airman Trainee
 
 1460 users online  

MU11 Eagle's Landing Airport
Climax Springs, Missouri, USA

GOING TO CLIMAX SPRINGS?


FAA INFORMATION EFFECTIVE 31 JANUARY 2019

Location

FAA Identifier: MU11
Lat/Long: 38-13-15.1010N / 093-00-55.7050W
38-13.251683N / 093-00.928417W
38.2208614 / -93.0154736
(estimated)
Elevation: 822 ft. / 251 m (estimated)
Variation: 04E (1985)
From city: 7 miles N of CLIMAX SPRINGS, MO
Time zone: UTC -6 (UTC -5 during Daylight Saving Time)
Zip code: 65326

Airport Operations

Airport use: Private use. Permission required prior to landing
Activation date: 06/1980
Control tower: no
ARTCC: KANSAS CITY CENTER
FSS: COLUMBIA FLIGHT SERVICE STATION
Attendance: UNATNDD
Wind indicator: no
Segmented circle: no

Airport Communications

WX AWOS-3 at RAW (17 nm NW): 118.325 (660-547-3761)

Nearby radio navigation aids

VOR radial/distance  VOR name  Freq  Var
SHYr299/22.3SUNSHINE VOR/DME108.4000E

 
NDB name  Hdg/Dist  Freq  Var  ID
SEDALIA162/30.028103EDMO -.. -- ---
GOLDEN VALLEY104/32.638801EGLY --. .-.. -.--

Airport Services

Runway Information

Runway 13/31

Dimensions: 1800 x 100 ft. / 549 x 30 m
Surface: turf
RUNWAY 13  RUNWAY 31
Traffic pattern: leftleft

Airport Ownership and Management from official FAA records

Ownership: Privately-owned
Owner: MIKE CESARETTI
P O BOX 1208
BLUE SPRINGS, MO 64015
Phone 816-228-0358

Instrument Procedures

There are no published instrument procedures at MU11.

Some nearby airports with instrument procedures:

K15 - Grand Glaize-Osage Beach Airport (17 nm SE)
KRAW - Warsaw Municipal Airport (17 nm NW)
KOZS - Camdenton Memorial-Lake Regional Airport (21 nm SE)
H79 - Eldon Model Airpark (23 nm E)
KAIZ - Lee C Fine Memorial Airport (23 nm E)
 
Loc | Ops | Rwys | IFR | FBO | Links
Com | Nav | Svcs | Stats | Notes

Kansas City Aviation Department
 
Area around MU11 (Eagle's Landing Airport)
 
Road maps at: MapQuest Bing Google
 
Aerial photo
No photo
 
Sectional chart

 
Airport distance calculator
Flying to Eagle's Landing Airport? Find the distance to fly.

From to MU11

Sunrise and sunset
Times for 18-Feb-2019
 Local
(UTC-6)
 Zulu
(UTC)
Morning civil twilight06:3312:33
Sunrise07:0013:00
Sunset17:5223:52
Evening civil twilight18:1900:19

Current date and time
Zulu (UTC)  18-Feb-2019 20:11:45
Local (UTC-6)  18-Feb-2019 14:11:45
 
METAR
KRAW 
17nm NW 
181955Z AUTO 02005KT 10SM OVC018 A3047 RMK AO2
KOZS 
21nm SE 
181955Z AUTO 33003KT 10SM CLR M01/M08 A3044 RMK AO2
KAIZ 
24nm E 
181956Z AUTO 36006KT 10SM SCT025 M02/M08 A3045 RMK AO2 SLP322 P0002 T10171078 FZRANO
KDMO 
31nm N 
181853Z AUTO 30007KT 10SM OVC019 M04/M08 A3047 RMK AO2 SNE02 SLP331 P0000 T10391078 $
KGLY 
33nm W 
181935Z AUTO 00000KT 8SM OVC016 M04/M09 A3049 RMK AO2
TAF
KSZL 
38nm NW 
181410Z 1814/1917 29010KT 9999 BKN012 620123 QNH3023INS BECMG 1814/1815 32010G15KT 9999 BKN009 620093 QNH3030INS BECMG 1816/1817 34008KT 9999 BKN012 620123 QNH3032INS BECMG 1903/1904 36006KT 9999 BKN015 620153 QNH3046INS BECMG 1907/1908 VRB06KT 9999 FEW013 SCT020 QNH3042INS BECMG 1916/1917 10010G15KT 9999 BKN150 621502 QNH3038INS TXM01/1821Z TNM11/1814Z
NOTAMs
Click for the latest NOTAMs
NOTAMs are issued by the DoD/FAA and will open in a separate window not controlled by AirNav.

 

 
 

Would you like to see your business listed on this page?

 If your business provides an interesting product or service to pilots, flight crews, aircraft, or users of the Eagle's Landing Airport, you should consider listing it here.  To start the listing process, click on the button below
 
Add a business
 

Other Pages about Eagle's Landing Airport

Update a link
 
Copyright © AirNav, LLC. All rights reserved. Privacy Policy  Contact